This demonstration page uses our WeatherBlox Daily Observations layout. Learn more.

Left ArrowRight Arrow

34.16533, -84.80231

Hourly Observations for November 21, 2020

Temp ( °F °C ) Dew Point ( °F °C ) Humidity (%) Winds ( mph kmh ) Pressure ( in mb ) Visibility ( mi km ) Precip ( " mm )
12:53 am 00:53 Clear with Mist and Fog 44 6.7 42 5.6 93 93 Calm 30.42 1030 6 10 0.00 0.00
1:04 am 01:04 Clear with Mist and Fog 45 7.2 42 5.6 90 90 Calm 30.46 1031 2 3 0.00 0.00
1:10 am 01:10 Clear with Mist and Fog 45 7.2 42 5.6 90 90 Calm 30.46 1031 3 5 0.00 0.00
1:53 am 01:53 Clear 43 6.1 41 5 93 93 Calm 30.42 1030 8 13 0.00 0.00
2:31 am 02:31 Mostly Clear 44 6.7 42 5.6 93 93 Calm 30.45 1031 9 14 0.00 0.00
2:45 am 02:45 Mostly Cloudy with Mist and Fog 43 6.1 41 5 93 93 Calm 30.45 1031 3 5 0.00 0.00
2:53 am 02:53 Cloudy with Mist and Fog 43 6.1 41 5 93 93 Calm 30.42 1030 5 8 0.00 0.00
3:15 am 03:15 Cloudy with Mist and Fog 43 6.1 41 5 93 93 Calm 30.45 1031 2 3 0.00 0.00
3:37 am 03:37 Cloudy with Fog 43 6.1 40 4.4 89 89 Calm 30.45 1031 1 1 0.00 0.00
3:46 am 03:46 Cloudy with Mist and Fog 42 5.6 40 4.4 92 92 Calm 30.45 1031 2 3 0.00 0.00
3:53 am 03:53 Mostly Cloudy 43 6.1 40 4.4 89 89 Calm 30.41 1030 7 11 0.00 0.00
4:23 am 04:23 Cloudy with Mist and Fog 42 5.6 40 4.4 92 92 Calm 30.45 1031 2 3 0.00 0.00
4:50 am 04:50 Cloudy with Mist and Fog 43 6 39 4 87 87 Calm 30.45 1031 3 5 0.00 0.00
4:53 am 04:53 Cloudy with Mist and Fog 42 5.6 39 3.9 89 89 Calm 30.42 1030 5 8 0.00 0.00
5:03 am 05:03 Cloudy with Mist and Fog 42 5.6 39 3.9 89 89 Calm 30.46 1032 2 3 0.00 0.00
5:14 am 05:14 Mostly Cloudy with Mist and Fog 41 5 39 3.9 93 93 Calm 30.46 1032 1 1 0.00 0.00
5:31 am 05:31 Mostly Cloudy with Fog 42 5.6 40 4.4 92 92 Calm 30.46 1032 0 0 0.00 0.00
5:53 am 05:53 Mostly Cloudy with Fog 42 5.6 40 4.4 92 92 Calm 30.43 1031 0 0 0.00 0.00
6:14 am 06:14 Mostly Cloudy with Fog 41 5 39 3.9 93 93 Calm 30.46 1032 1 1 0.00 0.00
6:25 am 06:25 Cloudy with Mist and Fog 41 5 39 3.9 93 93 Calm 30.46 1032 2 3 0.00 0.00
6:33 am 06:33 Mostly Cloudy with Mist and Fog 41 5 39 3.9 93 93 Calm 30.46 1032 4 6 0.00 0.00
6:53 am 06:53 Mostly Cloudy with Mist and Fog 41 5 39 3.9 93 93 Calm 30.43 1031 4 6 0.00 0.00
7:36 am 07:36 Cloudy with Mist and Fog 41 5 39 3.9 93 93 Calm 30.47 1032 2 3 0.00 0.00
7:46 am 07:46 Cloudy with Mist and Fog 40 4.4 39 3.9 97 97 Calm 30.48 1032 5 8 0.00 0.00
7:51 am 07:51 Cloudy with Mist and Fog 41 5 39 4 93 93 Calm 30.47 1032 2 2 0.00 0.00
7:53 am 07:53 Cloudy with Mist and Fog 41 5 40 4.4 96 96 Calm 30.44 1031 1 2 0.00 0.00
8:00 am 08:00 Cloudy with Fog 41 5 40 4.4 96 96 Calm 30.47 1032 1 1 0.00 0.00
8:10 am 08:10 Cloudy with Mist and Fog 42 5.6 40 4.4 92 92 Calm 30.47 1032 2 3 0.00 0.00
8:31 am 08:31 Cloudy with Mist and Fog 43 6.1 42 5.6 97 97 Calm 30.47 1032 1 1 0.00 0.00
8:47 am 08:47 Cloudy with Mist and Fog 45 7 43 6 93 93 Calm 30.47 1032 2 3 0.00 0.00
8:53 am 08:53 Cloudy with Mist and Fog 45 7.2 43 6.1 93 93 Calm 30.44 1031 2 3 0.00 0.00
9:09 am 09:09 Mostly Cloudy with Mist and Fog 46 7.8 44 6.7 93 93 Calm 30.47 1032 5 8 0.00 0.00
9:20 am 09:20 Partly Cloudy 48 8.9 45 7.2 89 89 Calm 30.46 1032 7 11 0.00 0.00
9:53 am 09:53 Sunny 52 11.1 47 8.3 83 83 Calm 30.43 1031 7 11 0.00 0.00
10:53 am 10:53 Sunny 60 15.6 51 10.6 72 72 Calm 30.42 1030 10 16 0.00 0.00
11:53 am 11:53 Sunny 66 18.9 51 10.6 59 59 Calm 30.39 1029 10 16 0.00 0.00
12:53 pm 12:53 Sunny 68 20 52 11.1 57 57 VRB 3 6 30.35 1028 10 16 0.00 0.00
1:53 pm 13:53 Sunny 70 21.1 52 11.1 53 53 Calm 30.31 1026 10 16 0.00 0.00
2:53 pm 14:53 Sunny 71 21.7 51 10.6 49 49 Calm 30.29 1026 10 16 0.00 0.00
3:53 pm 15:53 Sunny 71 21.7 51 10.6 49 49 N 5 7 30.28 1025 10 16 0.00 0.00
4:53 pm 16:53 Sunny 67 19.4 49 9.4 53 53 Calm 30.27 1025 10 16 0.00 0.00
5:53 pm 17:53 Clear 56 13.3 50 10 81 81 Calm 30.28 1025 10 16 0.00 0.00
6:53 pm 18:53 Clear 53 11.7 49 9.4 86 86 Calm 30.28 1026 10 16 0.00 0.00
7:53 pm 19:53 Clear 52 11.1 48 8.9 86 86 Calm 30.29 1026 10 16 0.00 0.00
8:53 pm 20:53 Clear 50 10 47 8.3 89 89 Calm 30.28 1026 10 16 0.00 0.00
9:53 pm 21:53 Clear 48 8.9 45 7.2 89 89 Calm 30.28 1025 9 14 0.00 0.00
10:53 pm 22:53 Clear 47 8.3 45 7.2 93 93 Calm 30.27 1025 7 11 0.00 0.00
11:53 pm 23:53 Clear 46 7.8 43 6.1 89 89 Calm 30.26 1025 8 13 0.00 0.00

Powered by AerisWeather